| time (UTC) | temp C | wind direction | speed KPH | gust KPH | rain 1hr cm | rain 24hr cm | rain mn cm | humidity % | barometer mb |
| 20260504081535 | 5 | 74 | 3.2 | 12.9 | 0.00 | 0.00 | 0.00 | 62 | 1011.0 |
| 20260504044531 | 7 | 22 | 1.6 | 4.8 | 0.00 | 0.00 | 0.00 | 59 | 1010.8 |
| 20260504043037 | 7 | 34 | 1.6 | 4.8 | 0.00 | 0.00 | 0.00 | 59 | 1010.8 |
| 20260504041534 | 7 | 0 | 1.6 | 4.8 | 0.00 | 0.00 | 0.00 | 59 | 1010.8 |
| 20260504040058 | 7 | 46 | 1.6 | 4.8 | 0.00 | 0.00 | 0.00 | 59 | 1010.9 |
| 20260504034532 | 7 | 9 | 0.0 | 4.8 | 0.00 | 0.00 | 0.00 | 58 | 1010.9 |
| 20260504033035 | 7 | 22 | 1.6 | 3.2 | 0.00 | 0.00 | 0.00 | 58 | 1010.8 |
| 20260504031537 | 7 | 113 | 1.6 | 4.8 | 0.00 | 0.00 | 0.00 | 58 | 1011.0 |
| 20260504030034 | 7 | 131 | 1.6 | 3.2 | 0.00 | 0.00 | 0.00 | 58 | 1010.8 |
| 20260504024536 | 7 | 105 | 1.6 | 3.2 | 0.00 | 0.00 | 0.00 | 57 | 1011.2 |
| 20260504023031 | 7 | 126 | 1.6 | 6.4 | 0.00 | 0.00 | 0.00 | 57 | 1011.2 |
| 20260504021536 | 7 | 111 | 3.2 | 4.8 | 0.00 | 0.00 | 0.00 | 56 | 1011.1 |
| 20260504020032 | 7 | 126 | 3.2 | 6.4 | 0.00 | 0.00 | 0.00 | 55 | 1010.8 |
| 20260504014537 | 7 | 103 | 3.2 | 9.7 | 0.00 | 0.00 | 0.00 | 54 | 1010.9 |
| 20260504013034 | 7 | 86 | 4.8 | 9.7 | 0.00 | 0.00 | 0.00 | 53 | 1010.8 |
| 20260504011538 | 7 | 86 | 3.2 | 8.0 | 0.00 | 0.00 | 0.00 | 54 | 1010.7 |
| 20260504010037 | 7 | 78 | 1.6 | 3.2 | 0.00 | 0.00 | 0.00 | 54 | 1010.5 |
| 20260504004542 | 8 | 0 | 1.6 | 3.2 | 0.00 | 0.00 | 0.00 | 54 | 1010.4 |
| 20260504003047 | 8 | 93 | 1.6 | 3.2 | 0.00 | 0.00 | 0.00 | 53 | 1010.1 |
| 20260504001537 | 8 | 0 | 1.6 | 4.8 | 0.00 | 0.00 | 0.00 | 53 | 1010.0 |
| 20260504000037 | 8 | 19 | 1.6 | 4.8 | 0.00 | 0.00 | 0.00 | 52 | 1009.9 |
| 20260503234536 | 8 | 120 | 3.2 | 6.4 | 0.00 | 0.00 | 0.00 | 53 | 1010.1 |
| 20260503233031 | 8 | 126 | 3.2 | 9.7 | 0.00 | 0.00 | 0.00 | 52 | 1009.9 |
| 20260503231532 | 8 | 144 | 4.8 | 12.9 | 0.00 | 0.00 | 0.00 | 51 | 1010.0 |
| 20260503230040 | 9 | 110 | 1.6 | 9.7 | 0.00 | 0.00 | 0.00 | 51 | 1009.9 |
| 20260503224538 | 9 | 108 | 4.8 | 19.3 | 0.00 | 0.00 | 0.00 | 51 | 1009.9 |
| 20260503223036 | 10 | 68 | 8.0 | 29.0 | 0.00 | 0.00 | 0.00 | 48 | 1009.7 |
| 20260503221530 | 10 | 148 | 4.8 | 11.3 | 0.00 | 0.00 | 0.00 | 50 | 1009.9 |
| 20260503220034 | 10 | 108 | 3.2 | 17.7 | 0.00 | 0.00 | 0.00 | 49 | 1010.0 |
| 20260503214530 | 8 | 50 | 6.4 | 20.9 | 0.00 | 0.00 | 0.00 | 50 | 1009.9 |
| 20260503213032 | 9 | 121 | 8.0 | 19.3 | 0.00 | 0.00 | 0.00 | 48 | 1009.7 |
| 20260503211531 | 10 | 108 | 6.4 | 16.1 | 0.00 | 0.00 | 0.00 | 46 | 1009.5 |
| 20260503210031 | 9 | 105 | 6.4 | 22.5 | 0.00 | 0.00 | 0.00 | 43 | 1009.5 |
| 20260503204534 | 10 | 135 | 8.0 | 19.3 | 0.00 | 0.00 | 0.00 | 44 | 1009.5 |
| 20260503203031 | 10 | 122 | 9.7 | 24.1 | 0.00 | 0.00 | 0.00 | 41 | 1009.4 |
| 20260503201531 | 11 | 128 | 6.4 | 20.9 | 0.00 | 0.00 | 0.00 | 40 | 1009.5 |
| 20260503200032 | 10 | 93 | 6.4 | 20.9 | 0.00 | 0.00 | 0.00 | 43 | 1009.7 |
| 20260503194534 | 10 | 142 | 11.3 | 22.5 | 0.00 | 0.00 | 0.00 | 42 | 1009.6 |
| 20260503193041 | 10 | 134 | 4.8 | 20.9 | 0.00 | 0.00 | 0.00 | 38 | 1009.9 |
| 20260503191543 | 11 | 36 | 8.0 | 17.7 | 0.00 | 0.00 | 0.00 | 36 | 1009.9 |
| 20260503190033 | 10 | 111 | 9.7 | 20.9 | 0.00 | 0.00 | 0.00 | 39 | 1010.2 |
| 20260503184534 | 10 | 250 | 8.0 | 17.7 | 0.00 | 0.00 | 0.00 | 43 | 1010.4 |
| 20260503183031 | 10 | 106 | 6.4 | 17.7 | 0.00 | 0.00 | 0.00 | 42 | 1010.5 |
| 20260503181531 | 10 | 130 | 8.0 | 29.0 | 0.00 | 0.00 | 0.00 | 40 | 1010.6 |
| 20260503180032 | 9 | 140 | 8.0 | 22.5 | 0.00 | 0.00 | 0.00 | 39 | 1010.9 |
| 20260503174536 | 8 | 130 | 9.7 | 16.1 | 0.00 | 0.00 | 0.00 | 41 | 1011.1 |
| 20260503173032 | 8 | 121 | 11.3 | 20.9 | 0.00 | 0.00 | 0.00 | 42 | 1011.1 |
| 20260503171532 | 7 | 140 | 6.4 | 24.1 | 0.00 | 0.00 | 0.00 | 43 | 1011.0 |